[[{"header":{"parameterUnit":"m.s-1","parameterCategory":2,"la1":30.2991,"la2":30.254,"lo1":-89.0895,"lo2":-89.0444,"dy":0.0017,"dx":0.0017,"nx":28,"ny":28,"refTime":"2023-11-01T09:00:00:Z","depth":"0","parameterNumber":2,"parameterNumberName":"U-component_of_CURRENTS"},"data":[0,0,0,0,0,0,0,0,0,0,0,0,0,0,0,0,0,0,0,0,0,0,0,0,0,0,0,0,0,0,0,0,0,0,0,0,0,0,0,0,0,0,0,0,0,0,0,0,0,0,0,0,0,0,0,0,0,0,-0.3035,-0.3035,0,-0.3052,-0.3052,-0.3052,-0.3017,-0.3016,-0.3015,-0.3015,-0.2979,-0.2979,-0.2979,0,0,0,0,0,0,0,0,0,0,0,0,0,-0.2945,-0.2946,-0.3035,-0.3035,-0.3036,-0.3052,-0.3052,-0.3052,-0.3017,-0.3016,-0.3015,-0.3014,-0.298,-0.2979,-0.2979,0,0,0,0,0,0,0,0,0,0,0,0,0,-0.2972,-0.2947,-0.3035,-0.3023,-0.3023,-0.3052,-0.3052,-0.3052,-0.3017,-0.3016,-0.3015,-0.3014,-0.298,-0.2979,-0.2979,-0.3001,0,0,-0.2978,-0.2978,0,0,0,0,0,0,0,0,-0.297,-0.2975,-0.3024,-0.3024,-0.3024,-0.3035,-0.3008,-0.3034,-0.3018,-0.3015,-0.3015,-0.3013,-0.2997,-0.2995,-0.2996,-0.3,-0.2998,-0.2978,-0.2978,-0.2978,-0.2978,0,0,0,0,0,0,0,-0.2968,-0.2973,-0.3038,-0.3025,-0.3025,-0.3009,-0.3011,-0.3012,-0.3008,-0.3015,-0.3014,-0.3022,-0.2995,-0.2996,-0.2995,-0.2998,-0.2978,-0.2978,-0.2978,-0.2978,-0.3014,-0.3015,0,0,0,0,0,0,-0.2977,-0.2972,-0.3037,-0.3039,-0.2998,-0.3012,-0.3014,-0.3029,-0.3009,-0.3007,-0.3023,-0.3021,-0.2997,-0.2995,-0.2993,-0.3022,-0.2978,-0.2978,-0.2977,-0.3013,-0.3014,-0.3016,0,0,0,0,0,0,-0.2975,-0.2983,-0.3037,-0.3008,-0.3014,-0.3015,-0.3032,-0.303,-0.3029,-0.3017,-0.3012,-0.3024,-0.2996,-0.2994,-0.3,-0.302,-0.2977,-0.2977,-0.3012,-0.3013,-0.3015,-0.3078,0,0,0,0,0,0,-0.2973,-0.2983,-0.2987,-0.3009,-0.3016,-0.3064,-0.3034,-0.3032,-0.3038,-0.3034,-0.3016,-0.3012,-0.2995,-0.3001,-0.3,-0.3019,-0.2977,-0.301,-0.3013,-0.3015,-0.3074,-0.3082,-0.3088,0,0,0,0,0,-0.297,-0.299,-0.2988,-0.2995,-0.3026,-0.3065,-0.3067,-0.306,-0.3039,-0.3051,-0.3035,-0.3012,-0.3013,-0.3002,-0.3,-0.302,-0.3009,-0.3012,-0.3014,-0.3071,-0.308,-0.3088,0,0,0,0,0,0,-0.2952,-0.2989,-0.2987,-0.3016,-0.3042,-0.3061,-0.3068,-0.3065,-0.3062,-0.3052,-0.3029,-0.3025,-0.304,-0.3023,-0.3011,-0.3037,-0.3007,-0.301,-0.3051,-0.3059,-0.3066,-0.3066,-0.2977,0,0,0,0,0,-0.2953,-0.2974,-0.3009,-0.303,-0.3045,-0.3055,-0.3065,-0.3069,-0.3075,-0.3071,-0.306,-0.3048,-0.3052,-0.3048,-0.3049,-0.3064,-0.3045,-0.3075,-0.3082,-0.3087,-0.3088,-0.3085,-0.3091,-0.3024,-0.3024,-0.3024,0,0,-0.2948,-0.2973,-0.2982,-0.3026,-0.3039,-0.3075,-0.3057,-0.3084,-0.3107,-0.3069,-0.3084,-0.3075,-0.3063,-0.3081,-0.3085,-0.3066,-0.3098,-0.3091,-0.3096,-0.3092,-0.3088,-0.3095,-0.31,-0.3026,-0.3026,-0.3025,0,0,-0.2959,-0.2977,-0.2999,-0.3032,-0.3069,-0.3085,-0.3097,-0.3123,-0.3126,-0.3148,-0.3127,-0.313,-0.3131,-0.3129,-0.3127,-0.3171,-0.3138,-0.3171,-0.3201,-0.3199,-0.3204,-0.3208,-0.3198,-0.3201,-0.3169,-0.3169,-0.3169,0,-0.2948,-0.2989,-0.3011,-0.3052,-0.3078,-0.3093,-0.313,-0.3148,-0.317,-0.3178,-0.3159,-0.3171,-0.3155,-0.3181,-0.3191,-0.3186,-0.3175,-0.3171,-0.3207,-0.3211,-0.3214,-0.3203,-0.3205,-0.3173,-0.3172,-0.3172,-0.3172,0,-0.2983,-0.3018,-0.3039,-0.3092,-0.3125,-0.3162,-0.3201,-0.3224,-0.3224,-0.3236,-0.3259,-0.3246,-0.3245,-0.3249,-0.3229,-0.3254,-0.3235,-0.322,-0.3186,-0.3225,-0.321,-0.3212,-0.3178,-0.3176,-0.3175,-0.3174,0,0,-0.2948,-0.3043,-0.3047,-0.3075,-0.315,-0.3175,-0.3231,-0.3277,-0.3298,-0.3316,-0.3336,-0.3345,-0.3326,-0.3322,-0.3306,-0.3303,-0.3314,-0.327,-0.3268,-0.3258,-0.3305,-0.3253,-0.325,-0.3304,-0.3305,-0.3305,-0.3286,0,-0.2962,-0.3033,-0.3084,-0.3143,-0.3179,-0.323,-0.3277,-0.332,-0.3345,-0.337,-0.3371,-0.338,-0.336,-0.335,-0.3351,-0.3321,-0.332,-0.332,-0.3269,-0.3268,-0.3216,-0.325,-0.3166,-0.3139,-0.3287,-0.3287,-0.3287,0,-0.2969,-0.3019,-0.3081,-0.3162,-0.3182,-0.322,-0.3286,-0.3333,-0.3389,-0.3406,-0.3429,-0.3426,-0.3431,-0.3399,-0.3383,-0.3383,-0.3348,-0.3326,-0.3324,-0.3253,-0.3219,-0.3123,-0.3135,-0.3117,-0.3289,-0.3289,-0.3289,0,-0.291,-0.3008,-0.3049,-0.3082,-0.3183,-0.3211,-0.3256,-0.3329,-0.3372,-0.3418,-0.3446,-0.3457,-0.3455,-0.3429,-0.3384,-0.338,-0.3358,-0.3343,-0.3272,-0.3268,-0.3173,-0.316,-0.3158,-0.3332,-0.3332,-0.3332,-0.3332,0,-0.2901,-0.2929,-0.3019,-0.3044,-0.3088,-0.3167,-0.3219,-0.3272,-0.3353,-0.3389,-0.3443,-0.3465,-0.3461,-0.3451,-0.3402,-0.334,-0.337,-0.3282,-0.3263,-0.3193,-0.3182,-0.3142,-0.3144,-0.3332,-0.3332,-0.3332,-0.3332,0,-0.2826,-0.2896,-0.2938,-0.3033,-0.3062,-0.3082,-0.3196,-0.3226,-0.3323,-0.3374,-0.3388,-0.3468,-0.3453,-0.3448,-0.3402,-0.3356,-0.3246,-0.3269,-0.3186,-0.3157,-0.3066,-0.3074,-0.3011,-0.2925,-0.3189,-0.3187,-0.3186,0,-0.2794,-0.2807,-0.2898,-0.2913,-0.2952,-0.3011,-0.3049,-0.3178,-0.3221,-0.3358,-0.3362,-0.3411,-0.3416,-0.3369,-0.3294,-0.3222,-0.3189,-0.31,-0.3077,-0.3054,-0.3049,-0.3035,-0.2966,-0.2979,-0.2976,-0.2974,-0.2972,0,-0.2708,-0.2732,-0.2764,-0.2807,-0.2841,-0.2897,-0.2965,-0.3013,-0.3148,-0.3215,-0.3284,-0.3313,-0.3317,-0.3229,-0.3163,-0.3093,-0.3028,-0.3051,-0.3049,-0.2904,-0.2866,-0.2775,-0.3002,-0.2952,-0.2954,-0.2955,-0.2956,-0.2957,-0.2608,-0.2605,-0.2638,-0.2665,-0.2708,-0.274,-0.2739,-0.2838,-0.2905,-0.2982,-0.3109,-0.3151,-0.3152,-0.3059,-0.2997,-0.288,-0.2882,-0.2802,-0.2819,-0.2812,-0.2711,-0.2893,-0.2809,-0.281,-0.2811,-0.2812,-0.2812,0,-0.247,-0.2478,-0.2492,-0.2517,-0.2496,-0.2577,-0.2636,-0.261,-0.2629,-0.2784,-0.2843,-0.296,-0.2883,-0.2896,-0.2811,-0.2696,-0.261,-0.2618,-0.2588,-0.2529,-0.2707,-0.268,-0.2537,-0.2537,-0.2537,-0.2537,-0.2537,-0.2537,-0.2393,-0.235,-0.2364,-0.2284,-0.2295,-0.2222,-0.2219,-0.2218,-0.2293,-0.2392,-0.255,-0.2725,-0.2759,-0.2904,-0.2763,-0.2625,-0.2527,-0.2441,-0.243,-0.259,-0.2609,-0.2627,-0.2603,-0.2447,-0.2447,-0.2182,-0.2181,-0.2179]},{"header":{"parameterUnit":"m.s-1","parameterCategory":2,"la1":30.2991,"la2":30.254,"lo1":-89.0895,"lo2":-89.0444,"dy":0.0017,"dx":0.0017,"nx":28,"ny":28,"refTime":"2023-11-01T09:00:00:Z","depth":"0","parameterNumber":3,"parameterNumberName":"V-component_of_CURRENTS"},"data":[0,0,0,0,0,0,0,0,0,0,0,0,0,0,0,0,0,0,0,0,0,0,0,0,0,0,0,0,0,0,0,0,0,0,0,0,0,0,0,0,0,0,0,0,0,0,0,0,0,0,0,0,0,0,0,0,0,0,-0.0424,-0.0423,0,-0.0307,-0.0306,-0.0304,-0.0229,-0.0229,-0.0229,-0.0228,-0.0086,-0.0083,-0.0079,0,0,0,0,0,0,0,0,0,0,0,0,0,-0.0523,-0.0522,-0.0424,-0.0423,-0.0421,-0.0307,-0.0306,-0.0304,-0.023,-0.0229,-0.0229,-0.0228,-0.0087,-0.0083,-0.0079,0,0,0,0,0,0,0,0,0,0,0,0,0,-0.045,-0.0521,-0.0425,-0.0371,-0.0365,-0.0308,-0.0305,-0.0303,-0.023,-0.0229,-0.0229,-0.0228,-0.0089,-0.0084,-0.0079,-0.0058,0,0,-0.0063,-0.0061,0,0,0,0,0,0,0,0,-0.0454,-0.0446,-0.038,-0.0375,-0.0368,-0.0283,-0.0288,-0.022,-0.023,-0.028,-0.0228,-0.0228,-0.0151,-0.014,-0.0119,-0.0051,-0.0045,-0.0062,-0.0059,-0.0057,-0.0056,0,0,0,0,0,0,0,-0.0459,-0.045,-0.0377,-0.0379,-0.0371,-0.0332,-0.0322,-0.0275,-0.0219,-0.0276,-0.027,-0.0259,-0.0147,-0.0124,-0.0115,-0.0043,-0.0063,-0.0058,-0.0055,-0.0053,0.0059,0.0059,0,0,0,0,0,0,-0.0479,-0.0456,-0.0381,-0.0374,-0.0411,-0.0331,-0.0319,-0.031,-0.022,-0.0206,-0.0259,-0.0256,-0.0133,-0.0121,-0.011,-0.0073,-0.0057,-0.0052,-0.0049,0.0059,0.0059,0.0059,0,0,0,0,0,0,-0.0482,-0.0474,-0.0386,-0.0412,-0.0398,-0.0331,-0.0321,-0.0308,-0.0284,-0.0208,-0.0193,-0.0249,-0.0132,-0.0117,-0.0067,-0.0067,-0.005,-0.0045,0.006,0.0059,0.0059,-0.0004,0,0,0,0,0,0,-0.0485,-0.0475,-0.0479,-0.0414,-0.0398,-0.0361,-0.0321,-0.0306,-0.0279,-0.0273,-0.0194,-0.018,-0.0131,-0.0075,-0.0062,-0.006,-0.0041,0.006,0.0059,0.0059,-0.0002,-0.0007,-0.0011,0,0,0,0,0,-0.0489,-0.0498,-0.048,-0.0471,-0.0404,-0.0362,-0.0351,-0.0299,-0.0279,-0.0275,-0.0217,-0.0182,-0.0067,-0.0071,-0.0055,-0.0052,0.006,0.006,0.0059,-0.0,-0.0006,-0.001,0,0,0,0,0,0,-0.0542,-0.049,-0.0468,-0.0461,-0.042,-0.035,-0.0343,-0.0307,-0.0257,-0.0252,-0.0179,-0.0161,-0.012,-0.0079,-0.0085,-0.0021,0.0,0.0003,-0.005,-0.0055,-0.0059,-0.0072,-0.0037,0,0,0,0,0,-0.0558,-0.0552,-0.0493,-0.0489,-0.0472,-0.0409,-0.0387,-0.0352,-0.0299,-0.0276,-0.0219,-0.0161,-0.0109,-0.0078,-0.003,0.0008,0.0054,0.0018,0.0014,0.001,0.001,0.008,0.0082,0.0058,0.0058,0.0058,0,0,-0.0579,-0.0549,-0.0546,-0.0501,-0.0465,-0.0446,-0.0395,-0.0368,-0.0347,-0.0269,-0.0229,-0.0175,-0.0104,-0.0062,-0.0039,-0.0026,0.004,0.001,0.0006,0.0008,0.008,0.0082,0.0085,0.0058,0.0058,0.0058,0,0,-0.0622,-0.0591,-0.0603,-0.0571,-0.0525,-0.0482,-0.0479,-0.0413,-0.0379,-0.0335,-0.0274,-0.0218,-0.0144,-0.0086,-0.0048,-0.0047,0.0011,-0.0038,-0.0062,0.0006,0.0008,0.0011,0.0065,0.0074,-0.0036,-0.0036,-0.0036,0,-0.065,-0.0651,-0.06,-0.0598,-0.0578,-0.0504,-0.0506,-0.0458,-0.0384,-0.0354,-0.0335,-0.0209,-0.0153,-0.0082,-0.0083,-0.0056,-0.0014,-0.0049,0.0,0.0004,0.0009,0.0063,0.0073,-0.0039,-0.0039,-0.0038,-0.0038,0,-0.0693,-0.0694,-0.0698,-0.0669,-0.064,-0.0631,-0.0559,-0.0526,-0.0476,-0.0421,-0.0348,-0.0262,-0.0187,-0.0161,-0.0119,-0.0062,-0.0041,-0.0018,0.0011,0.0007,0.0065,0.0077,-0.0043,-0.0042,-0.0041,-0.004,0,0,-0.0755,-0.0736,-0.0737,-0.074,-0.0678,-0.066,-0.0622,-0.0562,-0.0535,-0.0453,-0.0405,-0.0308,-0.0257,-0.0211,-0.0144,-0.0079,-0.0017,-0.0044,-0.0039,0.0005,0.0125,0.0181,0.0199,0.0015,0.0017,0.0018,0.0151,0,-0.0806,-0.0837,-0.0798,-0.0812,-0.0819,-0.0738,-0.071,-0.0642,-0.0572,-0.0506,-0.0395,-0.033,-0.0276,-0.0239,-0.0166,-0.0051,0.0011,-0.0056,0.0127,0.0132,0.0179,0.0214,0.0266,0.0393,0.0162,0.0164,0.0166,0,-0.0859,-0.0873,-0.0908,-0.0889,-0.0882,-0.0871,-0.0806,-0.0769,-0.0652,-0.0597,-0.05,-0.0407,-0.0289,-0.0251,-0.0055,-0.0101,-0.0002,0.0088,0.0096,0.0179,0.021,0.0363,0.0423,0.0605,0.0184,0.0183,0.0182,0,-0.0936,-0.0945,-0.098,-0.0972,-0.0936,-0.0929,-0.0899,-0.0804,-0.0769,-0.065,-0.0605,-0.0452,-0.0368,-0.022,-0.003,-0.0043,0.0187,0.0193,0.0339,0.0343,0.0441,0.0451,0.0699,0.0322,0.0322,0.0322,0.0321,0,-0.1006,-0.103,-0.1025,-0.1042,-0.1075,-0.1011,-0.1011,-0.0954,-0.0862,-0.0817,-0.0665,-0.0589,-0.0356,-0.0189,-0.0036,0.0199,0.0186,0.0348,0.0391,0.0419,0.0425,0.0631,0.0695,0.0327,0.0326,0.0325,0.0324,0,-0.1084,-0.1082,-0.1125,-0.1117,-0.1118,-0.1141,-0.1105,-0.1093,-0.0994,-0.0926,-0.0888,-0.0676,-0.0447,-0.0206,0.0058,0.0198,0.0532,0.0486,0.0499,0.0542,0.0835,0.0891,0.1177,0.1271,0.0667,0.0669,0.0671,0,-0.1127,-0.1159,-0.1197,-0.1236,-0.124,-0.1258,-0.1265,-0.118,-0.1154,-0.0977,-0.0948,-0.0701,-0.051,-0.009,0.0214,0.0523,0.065,0.073,0.0718,0.088,0.0975,0.1017,0.1076,0.082,0.0823,0.0825,0.0827,0,-0.1203,-0.1217,-0.1258,-0.1345,-0.1382,-0.1409,-0.1404,-0.1401,-0.1276,-0.1186,-0.102,-0.0845,-0.0395,0.0015,0.0436,0.0607,0.0878,0.0789,0.0971,0.1135,0.1185,0.1285,0.0687,0.0849,0.0847,0.0845,0.0844,0.0843,-0.1253,-0.1315,-0.1373,-0.1452,-0.1502,-0.154,-0.156,-0.1513,-0.1456,-0.1285,-0.1099,-0.0794,-0.0161,0.0458,0.0673,0.1147,0.1077,0.1267,0.1326,0.1357,0.1449,0.089,0.1089,0.1088,0.1087,0.1086,0.1086,0,-0.1315,-0.1381,-0.147,-0.1559,-0.1626,-0.1618,-0.1632,-0.1616,-0.1548,-0.1324,-0.1115,-0.0416,0.0198,0.0761,0.1462,0.1688,0.1719,0.1781,0.1863,0.1899,0.1435,0.1442,0.171,0.1709,0.1709,0.1709,0.1709,0.1709,-0.135,-0.1452,-0.1505,-0.1638,-0.1696,-0.1752,-0.1761,-0.17,-0.1555,-0.1194,-0.0793,-0.0476,0.0406,0.1568,0.2198,0.2212,0.2391,0.2362,0.2448,0.2136,0.2092,0.205,0.2076,0.2472,0.2473,0.29,0.2905,0.2908]}],[{"header":{"parameterUnit":"m.s-1","parameterCategory":2,"la1":30.2991,"la2":30.254,"lo1":-89.0895,"lo2":-89.0444,"dy":0.0017,"dx":0.0017,"nx":28,"ny":28,"refTime":"2023-11-01T09:00:00:Z","depth":"2","parameterNumber":2,"parameterNumberName":"U-component_of_CURRENTS"},"data":[0,0,0,0,0,0,0,0,0,0,0,0,0,0,0,0,0,0,0,0,0,0,0,0,0,0,0,0,0,0,0,0,0,0,0,0,0,0,0,0,0,0,0,0,0,0,0,0,0,0,0,0,0,0,0,0,0,0,-0.2894,-0.2895,0,-0.2912,-0.2912,-0.2912,-0.2882,-0.2881,-0.288,-0.288,-0.2851,-0.2851,-0.2851,0,0,0,0,0,0,0,0,0,0,0,0,0,-0.2809,-0.281,-0.2894,-0.2895,-0.2895,-0.2912,-0.2912,-0.2912,-0.2882,-0.2881,-0.288,-0.288,-0.2851,-0.2851,-0.2851,0,0,0,0,0,0,0,0,0,0,0,0,0,-0.2835,-0.2811,-0.2894,-0.2885,-0.2885,-0.2912,-0.2912,-0.2912,-0.2882,-0.2881,-0.288,-0.2879,-0.2851,-0.2851,-0.2851,-0.287,0,0,-0.285,-0.285,0,0,0,0,0,0,0,0,-0.2833,-0.2837,-0.2886,-0.2886,-0.2886,-0.2897,-0.2872,-0.2897,-0.2882,-0.2879,-0.288,-0.2879,-0.2866,-0.2864,-0.2865,-0.2869,-0.2868,-0.285,-0.285,-0.285,-0.285,0,0,0,0,0,0,0,-0.2832,-0.2836,-0.2897,-0.2887,-0.2887,-0.2872,-0.2874,-0.2876,-0.2874,-0.2879,-0.2878,-0.2887,-0.2864,-0.2865,-0.2864,-0.2867,-0.285,-0.285,-0.285,-0.285,-0.289,-0.2891,0,0,0,0,0,0,-0.284,-0.2835,-0.2897,-0.2898,-0.2861,-0.2875,-0.2877,-0.2891,-0.2875,-0.2873,-0.2887,-0.2885,-0.2866,-0.2864,-0.2863,-0.2896,-0.285,-0.285,-0.285,-0.2889,-0.289,-0.2891,0,0,0,0,0,0,-0.2838,-0.2846,-0.2896,-0.2869,-0.2875,-0.2878,-0.2894,-0.2892,-0.2894,-0.2882,-0.2878,-0.2891,-0.2865,-0.2863,-0.2872,-0.2894,-0.285,-0.285,-0.2887,-0.2889,-0.2891,-0.2954,0,0,0,0,0,0,-0.2836,-0.2845,-0.285,-0.2871,-0.2877,-0.2923,-0.2895,-0.2894,-0.2903,-0.29,-0.2884,-0.288,-0.2864,-0.2872,-0.2872,-0.2893,-0.285,-0.2886,-0.2888,-0.289,-0.2951,-0.2958,-0.2964,0,0,0,0,0,-0.2833,-0.2852,-0.2851,-0.2858,-0.2888,-0.2925,-0.2927,-0.2922,-0.2904,-0.2916,-0.2903,-0.2881,-0.2886,-0.2874,-0.2872,-0.2894,-0.2885,-0.2887,-0.289,-0.2948,-0.2957,-0.2964,0,0,0,0,0,0,-0.2818,-0.2852,-0.285,-0.2879,-0.2904,-0.2921,-0.293,-0.2928,-0.2928,-0.2919,-0.2898,-0.2894,-0.2912,-0.2896,-0.2883,-0.2912,-0.2881,-0.2884,-0.2926,-0.2934,-0.294,-0.2941,-0.2849,0,0,0,0,0,-0.282,-0.2839,-0.2873,-0.2893,-0.2908,-0.2918,-0.2929,-0.2933,-0.294,-0.2938,-0.2929,-0.2919,-0.2924,-0.2922,-0.2923,-0.2939,-0.2921,-0.2951,-0.2958,-0.2964,-0.2964,-0.2963,-0.2969,-0.29,-0.29,-0.29,0,0,-0.2816,-0.284,-0.2848,-0.2891,-0.2904,-0.2938,-0.2921,-0.2949,-0.2972,-0.2936,-0.2954,-0.2946,-0.2935,-0.2954,-0.296,-0.2941,-0.2976,-0.2967,-0.2973,-0.2969,-0.2966,-0.2973,-0.2979,-0.2902,-0.2901,-0.2901,0,0,-0.2829,-0.2846,-0.2868,-0.2899,-0.2935,-0.2951,-0.2963,-0.2989,-0.2994,-0.3018,-0.2998,-0.3003,-0.3007,-0.3004,-0.3002,-0.3047,-0.3016,-0.3049,-0.3079,-0.3078,-0.3084,-0.3088,-0.3079,-0.3082,-0.3047,-0.3048,-0.3048,0,-0.2821,-0.2859,-0.288,-0.2919,-0.2944,-0.296,-0.2996,-0.3015,-0.3038,-0.3047,-0.3031,-0.3045,-0.3031,-0.3056,-0.3067,-0.3063,-0.3052,-0.3049,-0.3087,-0.3091,-0.3094,-0.3083,-0.3086,-0.3051,-0.3051,-0.305,-0.305,0,-0.2855,-0.2888,-0.2909,-0.296,-0.2992,-0.3029,-0.3066,-0.3091,-0.3094,-0.3106,-0.3132,-0.312,-0.3121,-0.3126,-0.3106,-0.3133,-0.3115,-0.3099,-0.3065,-0.3105,-0.3091,-0.3092,-0.3056,-0.3055,-0.3054,-0.3053,0,0,-0.2824,-0.2913,-0.2918,-0.2944,-0.3018,-0.3042,-0.3098,-0.3144,-0.3166,-0.3186,-0.3207,-0.3218,-0.3202,-0.3199,-0.3183,-0.3182,-0.3195,-0.3151,-0.3149,-0.3139,-0.3189,-0.3137,-0.3133,-0.3187,-0.3188,-0.3188,-0.317,0,-0.2838,-0.2906,-0.2954,-0.3012,-0.3047,-0.3097,-0.3143,-0.3187,-0.3213,-0.3239,-0.3242,-0.3253,-0.3235,-0.3228,-0.3231,-0.3202,-0.3202,-0.3201,-0.3152,-0.3151,-0.3098,-0.3134,-0.2874,-0.2832,-0.3171,-0.3171,-0.3171,0,-0.2846,-0.2894,-0.2954,-0.3032,-0.3051,-0.3089,-0.3155,-0.3201,-0.3258,-0.3276,-0.3301,-0.33,-0.3308,-0.3278,-0.3264,-0.3264,-0.3231,-0.321,-0.3209,-0.3137,-0.3102,-0.2846,-0.2822,-0.3173,-0.3173,-0.3173,-0.3173,0,-0.2791,-0.2884,-0.2925,-0.2957,-0.3054,-0.3083,-0.3127,-0.3199,-0.3242,-0.329,-0.3319,-0.3333,-0.3333,-0.331,-0.3268,-0.3264,-0.3244,-0.3229,-0.3159,-0.3154,-0.291,-0.2883,-0.322,-0.322,-0.322,-0.322,-0.322,0,-0.2783,-0.281,-0.2897,-0.2921,-0.2966,-0.3042,-0.3095,-0.3147,-0.3227,-0.3263,-0.3319,-0.3341,-0.3341,-0.3333,-0.3286,-0.3226,-0.3257,-0.3168,-0.3149,-0.2926,-0.2902,-0.3177,-0.3173,-0.3219,-0.322,-0.322,-0.322,0,-0.2713,-0.2779,-0.2821,-0.2913,-0.2941,-0.2963,-0.3074,-0.3103,-0.32,-0.3251,-0.3266,-0.3347,-0.3334,-0.3331,-0.3288,-0.3243,-0.3188,-0.3158,-0.2897,-0.2849,-0.3095,-0.3094,-0.308,-0.3078,-0.3077,-0.3075,-0.3074,0,-0.2682,-0.2695,-0.2783,-0.2798,-0.2837,-0.2896,-0.2932,-0.3059,-0.31,-0.3235,-0.3239,-0.329,-0.329,-0.3247,-0.3143,-0.3063,-0.3146,-0.2805,-0.2757,-0.31,-0.3083,-0.3084,-0.3085,-0.2452,-0.2446,-0.2441,-0.2437,0,-0.26,-0.2625,-0.2654,-0.2696,-0.273,-0.2784,-0.2849,-0.2895,-0.3027,-0.3089,-0.3154,-0.3179,-0.3156,-0.2965,-0.2889,-0.2801,-0.2799,-0.2704,-0.3105,-0.2548,-0.2511,-0.2494,-0.2514,-0.2392,-0.2396,-0.24,-0.2402,-0.2404,-0.2505,-0.2502,-0.2533,-0.2559,-0.2601,-0.263,-0.2626,-0.2709,-0.2767,-0.2796,-0.2937,-0.2878,-0.2852,-0.2607,-0.2483,-0.2375,-0.2565,-0.2436,-0.2449,-0.2468,-0.242,-0.2384,-0.223,-0.2234,-0.2237,-0.2239,-0.2242,0,-0.2368,-0.2379,-0.2392,-0.2414,-0.2387,-0.2472,-0.2525,-0.2466,-0.2459,-0.2524,-0.2542,-0.2286,-0.2189,-0.2177,-0.1946,-0.1926,-0.1875,-0.1847,-0.1764,-0.1809,-0.185,-0.1768,-0.1406,-0.1404,-0.1402,-0.14,0,0,-0.2292,-0.2247,-0.2259,-0.2174,-0.2189,-0.2102,-0.2095,-0.2034,-0.2029,-0.1935,-0.1902,-0.2051,-0.2117,-0.1751,-0.167,-0.1508,-0.1641,-0.1434,-0.2099,-0.2045,-0.2082,-0.2181,-0.2106,0,0,0,0,0]},{"header":{"parameterUnit":"m.s-1","parameterCategory":2,"la1":30.2991,"la2":30.254,"lo1":-89.0895,"lo2":-89.0444,"dy":0.0017,"dx":0.0017,"nx":28,"ny":28,"refTime":"2023-11-01T09:00:00:Z","depth":"2","parameterNumber":3,"parameterNumberName":"V-component_of_CURRENTS"},"data":[0,0,0,0,0,0,0,0,0,0,0,0,0,0,0,0,0,0,0,0,0,0,0,0,0,0,0,0,0,0,0,0,0,0,0,0,0,0,0,0,0,0,0,0,0,0,0,0,0,0,0,0,0,0,0,0,0,0,-0.0353,-0.0352,0,-0.0239,-0.0237,-0.0236,-0.0164,-0.0163,-0.0163,-0.0163,-0.0024,-0.0021,-0.0017,0,0,0,0,0,0,0,0,0,0,0,0,0,-0.045,-0.0449,-0.0354,-0.0352,-0.0351,-0.0239,-0.0237,-0.0235,-0.0164,-0.0163,-0.0163,-0.0163,-0.0025,-0.0021,-0.0017,0,0,0,0,0,0,0,0,0,0,0,0,0,-0.0379,-0.0449,-0.0354,-0.0302,-0.0296,-0.0239,-0.0237,-0.0235,-0.0164,-0.0163,-0.0163,-0.0162,-0.0026,-0.0021,-0.0016,0.0005,0,0,-0.0001,0.0001,0,0,0,0,0,0,0,0,-0.0383,-0.0375,-0.0311,-0.0306,-0.0299,-0.0216,-0.022,-0.0154,-0.0164,-0.0213,-0.0163,-0.0162,-0.0087,-0.0077,-0.0055,0.0012,0.0018,-0.0,0.0003,0.0005,0.0006,0,0,0,0,0,0,0,-0.0388,-0.0379,-0.0307,-0.031,-0.0302,-0.0264,-0.0254,-0.0207,-0.0153,-0.0209,-0.0204,-0.0192,-0.0083,-0.006,-0.0051,0.002,-0.0001,0.0004,0.0007,0.0009,0.012,0.0119,0,0,0,0,0,0,-0.0407,-0.0384,-0.0311,-0.0304,-0.0341,-0.0263,-0.0251,-0.0242,-0.0154,-0.014,-0.0193,-0.0189,-0.0069,-0.0057,-0.0046,-0.0011,0.0005,0.001,0.0013,0.012,0.0119,0.0119,0,0,0,0,0,0,-0.041,-0.0402,-0.0315,-0.0342,-0.0328,-0.0262,-0.0252,-0.024,-0.0218,-0.0142,-0.0128,-0.0183,-0.0068,-0.0053,-0.0005,-0.0006,0.0012,0.0017,0.012,0.012,0.0119,0.0056,0,0,0,0,0,0,-0.0413,-0.0404,-0.0408,-0.0343,-0.0328,-0.0292,-0.0252,-0.0238,-0.0212,-0.0206,-0.0129,-0.0115,-0.0067,-0.0013,0.0,0.0002,0.002,0.012,0.012,0.0119,0.0058,0.0054,0.005,0,0,0,0,0,-0.0417,-0.0427,-0.0409,-0.04,-0.0334,-0.0293,-0.0281,-0.0232,-0.0212,-0.0208,-0.0152,-0.0118,-0.0005,-0.0009,0.0007,0.001,0.012,0.012,0.0119,0.006,0.0055,0.005,0,0,0,0,0,0,-0.047,-0.0418,-0.0397,-0.039,-0.035,-0.0281,-0.0274,-0.0239,-0.0191,-0.0186,-0.0115,-0.0097,-0.0057,-0.0017,-0.0022,0.004,0.0061,0.0064,0.0011,0.0006,0.0002,-0.0011,0.0025,0,0,0,0,0,-0.0485,-0.048,-0.0421,-0.0418,-0.0401,-0.034,-0.0318,-0.0285,-0.0232,-0.021,-0.0154,-0.0097,-0.0046,-0.0016,0.0031,0.0068,0.0114,0.0079,0.0074,0.007,0.0069,0.0138,0.014,0.0118,0.0118,0.0118,0,0,-0.0506,-0.0477,-0.0474,-0.043,-0.0394,-0.0377,-0.0326,-0.0301,-0.028,-0.0203,-0.0165,-0.0112,-0.0041,0.0,0.0022,0.0035,0.0099,0.007,0.0066,0.0068,0.0138,0.014,0.0142,0.0118,0.0118,0.0118,0,0,-0.0549,-0.052,-0.0531,-0.05,-0.0455,-0.0412,-0.041,-0.0345,-0.0312,-0.0269,-0.0209,-0.0155,-0.0082,-0.0025,0.0013,0.0013,0.007,0.0022,-0.0002,0.0064,0.0067,0.0069,0.0121,0.0129,0.0025,0.0024,0.0024,0,-0.0577,-0.0579,-0.0528,-0.0526,-0.0506,-0.0434,-0.0436,-0.039,-0.0317,-0.0288,-0.027,-0.0146,-0.0091,-0.0022,-0.0022,0.0005,0.0045,0.0011,0.0059,0.0062,0.0066,0.0119,0.0129,0.0021,0.0022,0.0022,0.0022,0,-0.062,-0.0621,-0.0625,-0.0597,-0.0568,-0.056,-0.0489,-0.0457,-0.0409,-0.0355,-0.0284,-0.0199,-0.0126,-0.01,-0.0059,-0.0003,0.0017,0.0041,0.0069,0.0065,0.0121,0.0132,0.0017,0.0018,0.0019,0.002,0,0,-0.0682,-0.0662,-0.0664,-0.0667,-0.0606,-0.0588,-0.0551,-0.0493,-0.0468,-0.0387,-0.0341,-0.0246,-0.0196,-0.015,-0.0085,-0.0021,0.0038,0.0014,0.0019,0.0061,0.0176,0.0227,0.0245,0.007,0.0072,0.0073,0.0201,0,-0.0732,-0.0762,-0.0724,-0.0738,-0.0745,-0.0666,-0.0639,-0.0573,-0.0504,-0.0441,-0.0331,-0.0268,-0.0215,-0.018,-0.0108,0.0005,0.0066,0.0001,0.0179,0.0184,0.0227,0.0259,0.0208,0.0321,0.0212,0.0214,0.0216,0,-0.0786,-0.0798,-0.0833,-0.0814,-0.0808,-0.0797,-0.0735,-0.0699,-0.0586,-0.0532,-0.0438,-0.0347,-0.0232,-0.0193,-0.0002,-0.0047,0.0051,0.014,0.0147,0.0226,0.0257,0.0311,0.0346,0.0235,0.0233,0.0232,0.0231,0,-0.0862,-0.087,-0.0905,-0.0897,-0.0862,-0.0855,-0.0827,-0.0734,-0.0701,-0.0586,-0.0543,-0.0394,-0.0312,-0.0166,0.002,0.0008,0.0233,0.0241,0.038,0.0384,0.0393,0.0395,0.0367,0.0367,0.0366,0.0366,0.0366,0,-0.0931,-0.0955,-0.0949,-0.0967,-0.1,-0.0937,-0.0939,-0.0884,-0.0794,-0.0752,-0.0604,-0.053,-0.0301,-0.0137,0.0013,0.0241,0.023,0.0388,0.043,0.0369,0.0368,0.0333,0.0327,0.0371,0.037,0.0369,0.0368,0,-0.1008,-0.1006,-0.1049,-0.1041,-0.1043,-0.1067,-0.1033,-0.1022,-0.0926,-0.0861,-0.0825,-0.0618,-0.0395,-0.0158,0.0101,0.0238,0.0443,0.0519,0.043,0.046,0.0546,0.0535,0.0687,0.069,0.0692,0.0694,0.0696,0,-0.1052,-0.1084,-0.1121,-0.116,-0.1165,-0.1183,-0.1192,-0.1109,-0.1084,-0.0914,-0.0886,-0.0647,-0.0462,-0.0052,0.023,0.0528,0.0522,0.0645,0.0621,0.0557,0.0583,0.0568,0.0555,0.06,0.0601,0.0602,0.0602,0,-0.1128,-0.1142,-0.1182,-0.1269,-0.1306,-0.1333,-0.133,-0.1328,-0.1206,-0.112,-0.0961,-0.0792,-0.037,-0.0026,0.0377,0.053,0.0597,0.0671,0.0648,0.0528,0.0488,0.0508,0.0496,0.0609,0.0608,0.0608,0.0608,0.0607,-0.1179,-0.1239,-0.1297,-0.1376,-0.1426,-0.1464,-0.1484,-0.1435,-0.138,-0.1209,-0.104,-0.0755,-0.0388,0.0182,0.0459,0.0703,0.07,0.0753,0.0745,0.0738,0.0707,0.0674,0.0823,0.0824,0.0824,0.0824,0.0825,0,-0.1237,-0.1306,-0.1393,-0.1482,-0.1544,-0.1543,-0.1556,-0.1523,-0.1453,-0.1247,-0.1046,-0.0641,-0.0225,0.0143,0.0546,0.0799,0.0751,0.0822,0.0717,0.071,0.0703,0.0666,0.0773,0.0774,0.0775,0.0775,0,0,-0.1272,-0.1371,-0.1422,-0.1552,-0.1613,-0.1661,-0.1671,-0.158,-0.1435,-0.1225,-0.1002,-0.0679,-0.0215,0.0064,0.0385,0.0594,0.0573,0.0594,0.0609,0.044,0.043,0.064,0.0572,0,0,0,0,0]}],[{"header":{"parameterUnit":"m.s-1","parameterCategory":2,"la1":30.2991,"la2":30.254,"lo1":-89.0895,"lo2":-89.0444,"dy":0.0017,"dx":0.0017,"nx":28,"ny":28,"refTime":"2023-11-01T09:00:00:Z","depth":"4","parameterNumber":2,"parameterNumberName":"U-component_of_CURRENTS"},"data":[0,0,0,0,0,0,0,0,0,0,0,0,0,0,0,0,0,0,0,0,0,0,0,0,0,0,0,0,0,0,0,0,0,0,0,0,0,0,0,0,0,0,0,0,0,0,0,0,0,0,0,0,0,0,0,0,0,0,-0.1945,-0.1946,0,-0.2014,-0.2015,-0.2016,-0.2059,-0.206,-0.206,-0.2061,-0.213,-0.2131,-0.2132,0,0,0,0,0,0,0,0,0,0,0,0,0,-0.1842,-0.1844,-0.1945,-0.1946,-0.1947,-0.2014,-0.2015,-0.2016,-0.2059,-0.206,-0.206,-0.2061,-0.2129,-0.2131,-0.2133,0,0,0,0,0,0,0,0,0,0,0,0,0,-0.1894,-0.1844,-0.1945,-0.1979,-0.1983,-0.2014,-0.2015,-0.2016,-0.2059,-0.206,-0.2061,-0.2061,-0.2129,-0.2131,-0.2133,-0.2131,0,0,-0.2139,-0.214,0,0,0,0,0,0,0,0,-0.1891,-0.1898,-0.1973,-0.1977,-0.1981,-0.2031,-0.2004,-0.2055,-0.2059,-0.2027,-0.2061,-0.2062,-0.2098,-0.2103,-0.211,-0.2134,-0.2137,-0.2139,-0.2141,-0.2142,-0.2142,0,0,0,0,0,0,0,-0.1888,-0.1895,-0.197,-0.1974,-0.1979,-0.1988,-0.1996,-0.2014,-0.2056,-0.203,-0.2034,-0.2046,-0.21,-0.2108,-0.2112,-0.2138,-0.2139,-0.2141,-0.2142,-0.2143,-0.2254,-0.2256,0,0,0,0,0,0,-0.1884,-0.1892,-0.1968,-0.1972,-0.194,-0.199,-0.1998,-0.2012,-0.2056,-0.2064,-0.2045,-0.2048,-0.2104,-0.211,-0.2115,-0.2207,-0.2141,-0.2143,-0.2145,-0.2253,-0.2255,-0.2257,0,0,0,0,0,0,-0.1882,-0.189,-0.1965,-0.1935,-0.1946,-0.1991,-0.2006,-0.2013,-0.2058,-0.2067,-0.2075,-0.2087,-0.2105,-0.2112,-0.2166,-0.2206,-0.2144,-0.2146,-0.2251,-0.2253,-0.2256,-0.2332,0,0,0,0,0,0,-0.1878,-0.1889,-0.1913,-0.1935,-0.1948,-0.2012,-0.2006,-0.2014,-0.2063,-0.2068,-0.2105,-0.211,-0.2106,-0.2163,-0.2168,-0.2208,-0.2148,-0.2248,-0.2252,-0.2255,-0.2328,-0.2337,-0.2345,0,0,0,0,0,-0.1874,-0.1902,-0.1913,-0.1924,-0.1974,-0.2013,-0.2021,-0.2053,-0.2065,-0.2094,-0.212,-0.2111,-0.2186,-0.2166,-0.2172,-0.2213,-0.2247,-0.2251,-0.2255,-0.2324,-0.2335,-0.2345,0,0,0,0,0,0,-0.1873,-0.1909,-0.1923,-0.1961,-0.1998,-0.2022,-0.2056,-0.2074,-0.2117,-0.2131,-0.2135,-0.2142,-0.2204,-0.2198,-0.2175,-0.2254,-0.2214,-0.2219,-0.2265,-0.2276,-0.2285,-0.2278,-0.215,0,0,0,0,0,-0.1882,-0.1913,-0.1946,-0.1982,-0.2003,-0.2035,-0.2062,-0.2086,-0.2118,-0.214,-0.2166,-0.2192,-0.2217,-0.224,-0.226,-0.2305,-0.2283,-0.2334,-0.2343,-0.2351,-0.2349,-0.2355,-0.2364,-0.2269,-0.2269,-0.2269,0,0,-0.1891,-0.1916,-0.1935,-0.1984,-0.2014,-0.2055,-0.2054,-0.2108,-0.215,-0.2139,-0.2214,-0.2229,-0.2237,-0.2289,-0.2315,-0.2294,-0.2368,-0.2356,-0.2362,-0.2356,-0.236,-0.2369,-0.2377,-0.2272,-0.2271,-0.2271,0,0,-0.1913,-0.195,-0.1979,-0.2016,-0.2072,-0.2094,-0.2118,-0.2168,-0.2203,-0.2266,-0.2269,-0.2308,-0.2356,-0.2365,-0.2373,-0.2442,-0.2415,-0.2458,-0.2499,-0.2506,-0.2513,-0.2519,-0.2505,-0.2509,-0.2461,-0.2462,-0.2462,0,-0.1926,-0.1966,-0.1997,-0.2038,-0.2076,-0.2116,-0.2162,-0.2202,-0.2266,-0.2295,-0.2304,-0.2377,-0.2387,-0.2434,-0.2459,-0.2463,-0.2455,-0.2459,-0.2516,-0.2522,-0.2527,-0.251,-0.2514,-0.2466,-0.2465,-0.2465,-0.2465,0,-0.1959,-0.201,-0.2036,-0.2098,-0.2143,-0.2194,-0.2248,-0.2304,-0.2349,-0.2379,-0.2454,-0.247,-0.2505,-0.2522,-0.2513,-0.2562,-0.2541,-0.2527,-0.2487,-0.2541,-0.252,-0.2523,-0.2472,-0.247,-0.2469,-0.2468,0,0,-0.1934,-0.2038,-0.2051,-0.2091,-0.2183,-0.2216,-0.23,-0.237,-0.2418,-0.2485,-0.2538,-0.259,-0.2597,-0.2606,-0.2607,-0.2617,-0.2647,-0.2595,-0.2593,-0.2575,-0.2653,-0.2487,-0.2473,-0.2649,-0.265,-0.2651,-0.2623,0,-0.1953,-0.2031,-0.2086,-0.2171,-0.2214,-0.2288,-0.2355,-0.2427,-0.2488,-0.255,-0.2583,-0.2632,-0.263,-0.265,-0.2665,-0.265,-0.2657,-0.2654,-0.2606,-0.2604,-0.2446,-0.2471,-0.2654,-0.2625,-0.2625,-0.2626,-0.2626,0,-0.1955,-0.2012,-0.2096,-0.2202,-0.2229,-0.2292,-0.2398,-0.2465,-0.2557,-0.2603,-0.2662,-0.2685,-0.2723,-0.2706,-0.2715,-0.2717,-0.2693,-0.2677,-0.2675,-0.2491,-0.2442,-0.2559,-0.263,-0.2629,-0.2629,-0.2629,-0.2628,0,-0.1893,-0.2013,-0.2079,-0.212,-0.2247,-0.2306,-0.2376,-0.2482,-0.2541,-0.2636,-0.2679,-0.2728,-0.2755,-0.2747,-0.2721,-0.2725,-0.2709,-0.2702,-0.2532,-0.252,-0.2645,-0.2638,-0.2703,-0.2703,-0.2703,-0.2703,-0.2703,0,-0.1867,-0.1925,-0.2062,-0.2098,-0.218,-0.228,-0.2372,-0.245,-0.2558,-0.2602,-0.2697,-0.272,-0.277,-0.2768,-0.2734,-0.2626,-0.2717,-0.2531,-0.25,-0.2678,-0.2676,-0.2646,-0.264,-0.2702,-0.2702,-0.2702,-0.2703,0,-0.178,-0.1878,-0.1958,-0.2103,-0.2154,-0.2209,-0.2365,-0.241,-0.2538,-0.2598,-0.2628,-0.2727,-0.2711,-0.273,-0.2706,-0.262,-0.2545,-0.2487,-0.2668,-0.2649,-0.235,-0.2349,-0.2285,-0.2279,-0.2274,-0.227,-0.2266,0,-0.1738,-0.1772,-0.1935,-0.1978,-0.2051,-0.2159,-0.2217,-0.2375,-0.2417,-0.2564,-0.2558,-0.262,-0.2651,-0.2486,-0.2527,-0.2443,-0.2419,-0.2368,-0.2365,-0.233,-0.2308,-0.2314,-0.2319,-0.2258,-0.2256,-0.2255,-0.2254,0,-0.1644,-0.1718,-0.1778,-0.1871,-0.1949,-0.2027,-0.2126,-0.2149,-0.2297,-0.244,-0.2419,-0.2405,-0.239,-0.2361,-0.2318,-0.226,-0.2391,-0.2314,-0.2324,-0.2321,-0.2296,-0.228,-0.2292,-0.2236,-0.2238,-0.224,-0.2241,0,-0.1563,-0.158,-0.1665,-0.1726,-0.1818,-0.1846,-0.1935,-0.1975,-0.2048,-0.2216,-0.2194,-0.2259,-0.2355,-0.2264,-0.2215,-0.2152,-0.2121,-0.2049,-0.2073,-0.2094,-0.2042,-0.1983,-0.1789,0,0,0,0,0,-0.1465,-0.1463,-0.1509,-0.1568,-0.1647,-0.17,-0.1836,-0.1925,-0.2078,-0.2002,-0.2098,-0.2068,-0.202,-0.2062,-0.1952,-0.2119,-0.2124,-0.1982,-0.2053,-0.2136,-0.2156,-0.2112,0,0,0,0,0,0,-0.1399,-0.1434,-0.145,-0.1409,-0.1411,-0.1484,-0.1561,-0.1675,-0.1659,-0.182,-0.1806,-0.1926,-0.1911,-0.2034,-0.1899,-0.1909,-0.1908,-0.2036,-0.203,-0.2124,-0.2143,-0.2159,-0.2122,0,0,0,0,0]},{"header":{"parameterUnit":"m.s-1","parameterCategory":2,"la1":30.2991,"la2":30.254,"lo1":-89.0895,"lo2":-89.0444,"dy":0.0017,"dx":0.0017,"nx":28,"ny":28,"refTime":"2023-11-01T09:00:00:Z","depth":"4","parameterNumber":3,"parameterNumberName":"V-component_of_CURRENTS"},"data":[0,0,0,0,0,0,0,0,0,0,0,0,0,0,0,0,0,0,0,0,0,0,0,0,0,0,0,0,0,0,0,0,0,0,0,0,0,0,0,0,0,0,0,0,0,0,0,0,0,0,0,0,0,0,0,0,0,0,-0.0186,-0.0186,0,-0.0108,-0.0107,-0.0106,-0.0057,-0.0057,-0.0057,-0.0056,0.0052,0.0054,0.0057,0,0,0,0,0,0,0,0,0,0,0,0,0,-0.0245,-0.0244,-0.0187,-0.0186,-0.0185,-0.0108,-0.0107,-0.0106,-0.0057,-0.0057,-0.0057,-0.0056,0.0051,0.0054,0.0057,0,0,0,0,0,0,0,0,0,0,0,0,0,-0.0197,-0.0244,-0.0187,-0.0152,-0.0148,-0.0109,-0.0107,-0.0106,-0.0057,-0.0057,-0.0056,-0.0056,0.005,0.0054,0.0058,0.0078,0,0,0.007,0.0072,0,0,0,0,0,0,0,0,-0.02,-0.0195,-0.0158,-0.0154,-0.015,-0.0093,-0.0088,-0.0043,-0.0057,-0.009,-0.0056,-0.0056,0.0005,0.0013,0.0028,0.0083,0.0087,0.0071,0.0073,0.0075,0.0076,0,0,0,0,0,0,0,-0.0203,-0.0198,-0.0154,-0.0157,-0.0152,-0.0124,-0.0117,-0.0079,-0.0044,-0.0087,-0.0084,-0.0077,0.0008,0.0024,0.0031,0.0089,0.0071,0.0074,0.0077,0.0078,0.0167,0.0167,0,0,0,0,0,0,-0.0218,-0.0201,-0.0157,-0.0152,-0.0176,-0.0123,-0.0115,-0.0111,-0.0045,-0.0035,-0.0077,-0.0075,0.0017,0.0026,0.0035,0.0061,0.0075,0.0079,0.0081,0.0167,0.0167,0.0167,0,0,0,0,0,0,-0.022,-0.0215,-0.016,-0.0176,-0.0167,-0.0123,-0.0117,-0.0109,-0.0095,-0.0038,-0.0027,-0.0072,0.0018,0.003,0.0067,0.0065,0.008,0.0084,0.0167,0.0167,0.0167,0.0112,0,0,0,0,0,0,-0.0222,-0.0216,-0.0222,-0.0177,-0.0167,-0.0146,-0.0118,-0.0108,-0.0092,-0.0088,-0.003,-0.0019,0.0019,0.0061,0.0071,0.0071,0.0087,0.0167,0.0167,0.0167,0.0114,0.011,0.0107,0,0,0,0,0,-0.0224,-0.0234,-0.0223,-0.0218,-0.0175,-0.0147,-0.0139,-0.0106,-0.0092,-0.0091,-0.0048,-0.0021,0.0067,0.0064,0.0076,0.0077,0.0167,0.0167,0.0167,0.0116,0.0111,0.0107,0,0,0,0,0,0,-0.0261,-0.0228,-0.0216,-0.0215,-0.0188,-0.0139,-0.0137,-0.0112,-0.0077,-0.0074,-0.0018,-0.0005,0.0025,0.0058,0.0054,0.0102,0.012,0.0122,0.0077,0.0073,0.007,0.0057,0.0091,0,0,0,0,0,-0.0273,-0.0274,-0.0235,-0.0236,-0.0226,-0.0184,-0.017,-0.0146,-0.0108,-0.0092,-0.005,-0.0006,0.0035,0.0058,0.0095,0.0124,0.0161,0.0132,0.0128,0.0125,0.0123,0.018,0.0181,0.0166,0.0166,0.0166,0,0,-0.029,-0.0272,-0.0273,-0.0245,-0.0222,-0.0213,-0.0174,-0.016,-0.0148,-0.0086,-0.0061,-0.0019,0.0038,0.007,0.0086,0.0098,0.0147,0.0125,0.0121,0.0121,0.018,0.0181,0.0183,0.0166,0.0166,0.0166,0,0,-0.0322,-0.0306,-0.0318,-0.0299,-0.0271,-0.0242,-0.0241,-0.0197,-0.0175,-0.0144,-0.0097,-0.0054,0.0001,0.0048,0.0078,0.0077,0.0123,0.0084,0.0062,0.0117,0.0119,0.0121,0.0161,0.0167,0.0086,0.0086,0.0086,0,-0.0344,-0.0351,-0.0317,-0.0319,-0.031,-0.0259,-0.0266,-0.0233,-0.0182,-0.0163,-0.0148,-0.0053,-0.0007,0.0047,0.0047,0.007,0.0102,0.0073,0.0112,0.0115,0.0118,0.0159,0.0166,0.0083,0.0084,0.0084,0.0084,0,-0.0377,-0.0386,-0.0391,-0.0378,-0.0362,-0.036,-0.0312,-0.0292,-0.026,-0.0221,-0.017,-0.0099,-0.0043,-0.002,0.0015,0.006,0.0075,0.0097,0.0121,0.0116,0.016,0.0168,0.008,0.0081,0.0081,0.0082,0,0,-0.0417,-0.0417,-0.0421,-0.0431,-0.0394,-0.0386,-0.0365,-0.0329,-0.0317,-0.0255,-0.0226,-0.0147,-0.0107,-0.007,-0.0015,0.004,0.0089,0.0071,0.0075,0.0107,0.02,0.0188,0.0196,0.0118,0.0119,0.012,0.0219,0,-0.0456,-0.0489,-0.0468,-0.0492,-0.0503,-0.0454,-0.044,-0.0398,-0.0352,-0.031,-0.022,-0.0175,-0.0125,-0.0099,-0.0037,0.0059,0.011,0.0059,0.0204,0.0208,0.0195,0.0206,0.0125,0.0226,0.0228,0.0229,0.023,0,-0.0492,-0.0511,-0.0551,-0.0557,-0.0557,-0.056,-0.053,-0.051,-0.0432,-0.0394,-0.0323,-0.0251,-0.0156,-0.0118,0.0043,0.0007,0.0091,0.0168,0.0174,0.0188,0.0212,0.0235,0.0247,0.0245,0.0244,0.0243,0.0242,0,-0.054,-0.0566,-0.0606,-0.0607,-0.0601,-0.0609,-0.0601,-0.0543,-0.0527,-0.0447,-0.0419,-0.0298,-0.0233,-0.0107,0.0051,0.0046,0.0229,0.0244,0.0314,0.0314,0.032,0.0317,0.035,0.035,0.035,0.035,0.035,0,-0.0581,-0.0613,-0.064,-0.066,-0.0707,-0.0674,-0.0698,-0.0665,-0.0611,-0.0588,-0.0474,-0.0417,-0.0226,-0.0093,0.0039,0.0204,0.0221,0.0311,0.0342,0.0293,0.0286,0.0326,0.0321,0.0354,0.0353,0.0352,0.0351,0,-0.062,-0.0638,-0.0692,-0.0719,-0.0735,-0.0768,-0.0778,-0.0781,-0.0723,-0.0685,-0.066,-0.0496,-0.0323,-0.0131,0.0088,0.0183,0.0343,0.0396,0.0323,0.0347,0.0391,0.0383,0.0475,0.0475,0.0476,0.0476,0.0476,0,-0.064,-0.0673,-0.0748,-0.0795,-0.0817,-0.0861,-0.0887,-0.0849,-0.0839,-0.0729,-0.0705,-0.0531,-0.0407,-0.0106,0.0088,0.0338,0.0372,0.0441,0.0421,0.0385,0.0405,0.0397,0.0388,0.0477,0.0477,0.0477,0.0477,0,-0.0674,-0.071,-0.0757,-0.086,-0.0917,-0.0967,-0.0993,-0.0991,-0.0924,-0.0875,-0.0731,-0.0553,-0.0352,-0.0112,0.0088,0.0266,0.0389,0.0445,0.0446,0.0427,0.0388,0.0406,0.0398,0.0478,0.0478,0.0478,0.0478,0,-0.0699,-0.0751,-0.0824,-0.0907,-0.099,-0.1038,-0.105,-0.1014,-0.0987,-0.085,-0.0806,-0.0569,-0.0423,-0.0149,0.0035,0.0211,0.0248,0.0286,0.0295,0.0296,0.0215,0.0137,0.0178,0,0,0,0,0,-0.0712,-0.0772,-0.086,-0.0949,-0.1032,-0.1072,-0.1098,-0.1086,-0.1024,-0.0935,-0.0863,-0.067,-0.0363,-0.022,-0.0047,0.0026,0.0263,0.0231,0.0306,0.0486,0.0484,0.0418,0,0,0,0,0,0,-0.0724,-0.081,-0.0858,-0.096,-0.1025,-0.1099,-0.1119,-0.1081,-0.1016,-0.0931,-0.0765,-0.065,-0.0353,-0.0462,-0.005,0.0007,0.0072,0.0386,0.0389,0.0486,0.0485,0.0484,0.0416,0,0,0,0,0]}]]